Regional Weather Roundup
Issued by NWS

Home | Current Version | Previous Version | Text Only | Print | Product List | Glossary Off
Versions: 1 2 3 4 5 6 7 8 9 10 11 12 13 14 15 16 17 18 19 20 21 22 23 24 25 26 27 28 29 30 31 32 33 34 35 36 37 38 39 40 41 42 43 44 45 46 47 48 49 50

000
ASUS43 KFSD 211710
RWRSD

WEATHER ROUNDUP FOR SOUTH DAKOTA
NATIONAL WEATHER SERVICE SIOUX FALLS SD
1200 PM CDT THU SEP 21 2017

NOTE: "FAIR" INDICATES FEW OR NO CLOUDS BELOW 12,000 FEET WITH NO
SIGNIFICANT WEATHER AND/OR OBSTRUCTIONS TO VISIBILITY.


SDZ001>005-009-010-012>017-211800-
NORTHWEST AND NORTH CENTRAL SOUTH DAKOTA

CITY           SKY/WX    TMP DP  RH WIND       PRES   REMARKS
BUFFALO          N/A     66  36  32 N17       29.64R
FAITH            N/A     73  48  41 S21       29.65R
MOBRIDGE       SUNNY     77  56  48 S31G41    29.64F
$$

SDZ012>016-024>037-041>051-057-063-072>074-211800-
SOUTHWEST AND SOUTH CENTRAL SOUTH DAKOTA

CITY           SKY/WX    TMP DP  RH WIND       PRES   REMARKS
RAPID CTY ARPT SUNNY     72  41  33 N8        29.68S
PIERRE         SUNNY     77  57  50 SE25G32   29.66F
CUSTER         SUNNY     72  32  23 SW10G22   29.78R
ELLSWORTH AFB  SUNNY     69  39  34 N13       29.68R
PHILIP         SUNNY     80  53  39 SW16      29.63F
PINE RIDGE     SUNNY     75  48  38 VRB5      29.69F
SPEARFISH      FAIR      63  39  42 NW12      29.74R
WINNER         FAIR      77  60  55 SE15G21   29.70F
$$

SDZ004>011-016>023-039-040-211800-
NORTHEAST SOUTH DAKOTA

CITY           SKY/WX    TMP DP  RH WIND       PRES   REMARKS
ABERDEEN       CLOUDY    73  46  38 S18G24    29.76F
WATERTOWN      SUNNY     73  47  39 SE22G31   29.78F
BROOKINGS      SUNNY     76  63  64 SE18G28   29.80F
SISSETON         N/A     73  48  41 SE18G30   29.80F
$$

SDZ017-020-022-023-036>040-048>070-211800-
SOUTHEAST SOUTH DAKOTA

CITY           SKY/WX    TMP DP  RH WIND       PRES   REMARKS
SIOUX FALLS    SUNNY     78  67  68 SE17G26   29.79F
HURON          PTSUNNY   75  57  53 SE15G26   29.74F
CHAMBERLAIN    SUNNY     75  61  62 SE17      29.71F
MITCHELL       PTSUNNY   75  63  66 S22G31    29.74F
YANKTON        CLOUDY    72  65  78 SE12      29.78F
$$

ABBREVIATIONS USED IN REMARKS
   TC - TEMPERATURE IN CELSIUS
  WCI - WIND CHILL INDEX
   HX - HEAT INDEX
  VSB - VISIBILITY





USA.gov is the U.S. government's official web portal to all federal, state and local government web resources and services.